Regional Weather Roundup
Issued by NWS Green Bay, WI

Home | Current Version | Previous Version | Graphics & Text | Print | Product List | Glossary Off
Versions: 1 2 3 4 5 6 7 8 9 10 11 12 13 14 15 16 17 18 19 20 21 22 23 24 25 26 27 28 29 30 31 32 33 34 35 36 37 38 39 40 41 42 43 44 45 46 47 48 49 50

000
ASUS43 KGRB 101700
RWRGRB

NORTH-CENTRAL AND NORTHEAST WISCONSIN REGIONAL WEATHER ROUNDUP
NATIONAL WEATHER SERVICE GREEN BAY WI
1100 AM CST WED FEB 10 2016

WIZ005-009-010>012-018-019-101800-
NORTH CENTRAL WISCONSIN

CITY           SKY/WX    TMP DP  RH WIND       PRES   REMARKS
IRONWOOD       CLOUDY     7   1  78 N7        30.01S WCI  -5
MANITOWISH WTR NOT AVBL
ARBOR VITAE    NOT AVBL
EAGLE RIVER    NOT AVBL
LAND O LAKES   NOT AVBL
RHINELANDER    CLOUDY     5  -7  57 N8        29.97R WCI  -8
PHILLIPS       NOT AVBL
ANTIGO         NOT AVBL
TOMAHAWK       NOT AVBL
MERRILL        NOT AVBL
$$

WIZ013-073-101800-
NORTHEAST WISCONSIN

CITY           SKY/WX    TMP DP  RH WIND       PRES   REMARKS
IRON MOUNTAIN  SUNNY      8  -7  50 NW18G29   29.96S WCI -11
MARINETTE      SUNNY     10  -8  44 NW14G23   29.99S WCI  -5
$$

WIZ017-030-035>037-045-101800-
CENTRAL WISCONSIN

CITY           SKY/WX    TMP DP  RH WIND       PRES   REMARKS
MEDFORD        NOT AVBL
WAUSAU         CLOUDY     9  -3  58 N10       30.00R WCI  -5
MOSINEE        NOT AVBL
MARSHFIELD     SUNNY      7  -5  57 N12       30.01S WCI  -8
WISC RAPIDS    MIX PCPN   8  -4  58 N9        30.05S WCI  -5
STEVENS POINT  NOT AVBL
WAUPACA        NOT AVBL
SHAWANO        SUNNY     12  -4  47 N14       30.03S WCI  -3
CLINTONVILLE   NOT AVBL
WAUTOMA        NOT AVBL
$$

WIZ038-039-048-051-101800-
FOX VALLEY

CITY           SKY/WX    TMP DP  RH WIND       PRES   REMARKS
NWS GREEN BAY  SUNNY     10  -5  50 NW14      30.02R WCI  -6
APPLETON       MOSUNNY   10  -6  48 NW13G20   29.99S WCI  -5
OSHKOSH        SUNNY     11  -3  53 N15       30.02R WCI  -5
FOND DU LAC    CLOUDY    11  -3  53 NW14      30.02S WCI  -5
$$

WIZ022-050-052-101800-
EAST CENTRAL WISCONSIN

CITY           SKY/WX    TMP DP  RH WIND       PRES   REMARKS
EPHRAIM        NOT AVBL
STURGEON BAY   SUNNY     10  -6  48 NW18      30.00S WCI  -8
MANITOWOC      NOT AVBL
SHEBOYGAN      SUNNY     11  -2  56 NW12      30.01R WCI  -3
$$

LMZ563-521-522-541>543-101800-
LAKESHORE

STATION/POSITION TIME  TEMP    WIND        PRES    VSBY  WAVE
                       AIR SEA DIR/SP/G                  HT/PER
                 (UTC) (F)     (DEG/KT/KT) (MB)    (MI)  (FT/S)
SHEBOYGAN LKSHOR 1600   10     330/ 16/ 19 1017.8R
KEWAUNEE LKSHORE 1600    9     320/ 15/ 21 1015.1R
CHAMBERS ISLAND  1640   13     310/ 17/ 23 1015.2R
MENOMINEE LKSHOR 1600    9     310/ 20     1014.6R
$$



USA.gov is the U.S. government's official web portal to all federal, state and local government web resources and services.